Lid_Strength_Index
14 14 15 15 14 14 14 14 13 13 13 13 12 11 11 11 10 10 10 9 9 8 7 7 7 6 6 6 6 4 5 5 6 4 12 14 14 12 12 12 12 12 9
15 14 15 15 15 15 15 15 14 14 13 13 13 12 12 11 11 10 10 9 9 9 8 8 8 7 7 7 7 7 6 6 6 6 9 14 14 13 12 12 13 12 10
15 15 15 15 15 14 14 14 14 14 14 13 13 13 12 11 11 10 10 10 10 10 9 9 9 8 8 8 8 8 8 7 7 7 7 15 15 14 14 13 14 13 11
15 15 15 14 14 15 15 15 15 15 14 14 13 13 12 12 11 11 11 11 11 10 10 10 9 9 9 9 9 9 8 9 9 9 8 13 15 15 13 15 15 14 13
15 14 15 15 15 15 15 15 15 14 14 14 14 13 13 12 12 12 11 11 12 12 11 10 10 10 10 9 9 9 9 10 10 10 10 10 13 16 15 14 15 15 14
15 16 16 16 16 16 15 15 15 15 15 14 14 14 14 13 11 11 11 12 12 12 13 12 11 11 10 9 9 8 8 9 10 10 10 10 10 12 13 14 14 16 17
17 17 17 17 17 16 16 15 16 16 15 16 15 15 15 14 12 11 11 13 13 13 13 13 13 12 12 11 10 9 9 8 7 8 9 9 9 9 11 13 14 14 14
17 17 17 17 17 16 16 16 16 16 17 16 16 16 16 15 13 12 12 13 14 13 13 13 13 13 12 12 11 11 11 10 10 8 7 7 7 7 9 11 12 14 16
18 18 18 17 17 17 17 18 17 17 17 17 16 16 16 16 14 13 13 14 15 15 14 14 13 13 12 10 11 11 11 11 9 7 6 5 5 6 8 10 13 15 18
18 18 18 18 18 18 18 18 18 18 18 17 17 17 16 17 15 14 14 15 16 16 15 15 13 13 11 11 12 12 12 12 10 9 9 7 6 6 6 9 11 14 16
19 19 19 19 19 19 19 19 19 19 18 19 18 18 17 17 17 15 14 16 16 16 16 16 15 13 12 12 10 11 11 9 8 8 7 7 7 7 8 9 10 11 15
20 21 21 20 20 20 21 20 20 20 20 20 20 19 18 18 16 16 15 14 14 16 16 16 15 13 11 11 11 9 7 6 6 6 8 9 10 10 14 14 13 13 12
23 23 22 22 21 21 22 22 22 21 21 21 21 20 20 19 18 16 16 14 14 15 15 14 12 12 11 10 9 7 7 6 6 7 10 11 12 15 16 17 16 16 16
25 24 23 23 23 23 22 22 23 23 22 22 21 21 20 20 19 18 16 17 16 15 15 15 14 11 9 8 8 7 6 6 6 9 11 14 15 16 17 17 18 18 20
25 24 24 24 25 24 24 24 22 21 20 20 20 20 21 21 19 16 16 17 16 15 15 16 16 14 12 11 9 7 7 8 10 11 14 16 16 17 18 18 18 19 21
27 26 26 26 26 25 25 25 21 19 18 17 16 17 18 16 15 15 15 13 13 13 17 18 17 15 14 13 11 9 10 11 11 13 14 15 17 18 19 19 19 20 21
32 29 28 27 27 26 26 26 27 23 19 17 16 16 15 15 15 14 13 14 14 15 19 18 18 17 16 14 11 9 10 11 12 13 14 15 16 18 19 20 20 21 22
35 30 29 28 27 27 27 27 26 26 26 25 21 19 17 16 14 13 14 16 20 18 19 19 18 17 16 15 11 10 10 12 13 14 15 15 16 18 19 20 20 21 22
31 30 30 30 29 28 28 26 26 26 26 26 24 21 20 17 14 14 15 21 21 20 20 19 18 17 16 15 13 11 12 13 14 15 15 16 17 18 19 19 20 21 22
36 32 31 32 31 30 29 28 27 27 26 25 24 24 22 19 21 22 21 20 20 20 20 19 18 17 16 16 16 12 13 14 14 15 16 16 16 17 19 19 20 21 22
37 36 33 33 34 33 31 30 28 27 26 25 24 22 16 19 22 22 21 21 20 19 19 19 18 17 17 17 16 16 13 14 15 15 16 17 17 18 18 18 20 21 22
37 36 36 35 33 32 32 29 28 27 26 25 24 23 18 23 22 21 20 20 19 18 18 18 18 17 17 18 17 18 17 15 15 16 17 17 18 18 19 19 20 21 22
36 35 34 35 35 33 31 31 30 29 26 26 25 24 24 23 22 21 20 19 19 18 17 17 18 18 17 18 17 18 18 18 17 16 17 18 18 19 19 20 21 22 23
38 38 36 35 34 33 32 30 28 28 27 26 25 24 23 22 21 21 20 19 19 18 18 17 17 17 18 18 18 18 18 17 18 18 18 19 19 20 20 21 22 22 23
41 39 38 35 35 32 31 29 28 27 27 26 25 24 23 22 21 21 20 19 19 19 19 18 17 17 17 18 19 19 18 17 18 19 19 19 19 20 21 21 22 23 23
39 38 36 35 34 33 32 30 28 28 27 26 25 24 23 22 22 21 21 20 20 20 20 18 17 17 17 18 18 17 16 15 16 18 20 20 21 21 22 22 23 24 24